Weather History for KSAV - December, 2013

Change the Weather History Date:

Thursday, December 5, 2013

  Actual Average Record
Temperature  
Mean Temperature 71 °F 54 °F  
Max Temperature 82 °F 65 °F 82 °F (2013)
Min Temperature 59 °F 43 °F 21 °F (2000)
Degree Days  
Heating Degree Days 0 12  
Month to date heating degree days 26 56  
Since 1 July heating degree days 282 323  
Cooling Degree Days 6 0  
Month to date cooling degree days 9 3  
Year to date cooling degree days 2462 2452  
Growing Degree Days 20 (Base 50)    
Moisture  
Dew Point 60 °F    
Average Humidity 74    
Maximum Humidity 97    
Minimum Humidity 51    
Precipitation  
Precipitation 0.00 in 0.09 in 1.17 in (1994)
Month to date precipitation T 0.43  
Year to date precipitation 51.69 45.44  
Sea Level Pressure  
Sea Level Pressure 30.12 in    
Wind  
Wind Speed 8 mph (South)    
Max Wind Speed 18 mph    
Max Gust Speed 23 mph    
Visibility 8 miles    
Events      
T = Trace of Precipitation, MM = Missing Value Source: NWS Daily Summary

Daily Weather History Graph

Daily Weather History Graph

Search for Another Location

Airport or City:

Trip Planner

Search our weather history database for the weather conditions in past years. The results will help you decide how hot, cold, wet, or windy it might be!

Date:

Astronomy

Dec. 05, 2013 Rise Set
Actual Time 7:11 AM EST 5:19 PM EST
Civil Twilight 6:44 AM EST 5:46 PM EST
Nautical Twilight 6:13 AM EST 6:17 PM EST
Astronomical Twilight 5:44 AM EST 6:46 PM EST
Moon 9:34 AM EST (12/5) 8:33 PM EST (12/5)
Length of Visible Light 11h 02m
Length of Day
10h 08m
Waxing Crescent, 10% of the Moon is Illuminated
Dec 5
Waxing Crescent
Dec 9
First Quarter
Dec 17
Full
Dec 25
Last Quarter
Jan 1
New

Hourly Weather History & Observations

Time (EST) Temp. Heat Index Dew Point Humidity Pressure Visibility Wind Dir Wind Speed Gust Speed Precip Events Conditions
12:53 AM 60.1 °F - 57.9 °F 93% 30.11 in 9.0 mi Calm Calm - N/A   Partly Cloudy
1:53 AM 60.1 °F - 57.9 °F 93% 30.11 in 6.0 mi SSE 4.6 mph - N/A   Clear
2:53 AM 60.1 °F - 57.9 °F 93% 30.10 in 5.0 mi South 4.6 mph - N/A   Clear
3:53 AM 60.1 °F - 57.9 °F 93% 30.11 in 6.0 mi Calm Calm - N/A   Clear
4:01 AM 60.8 °F - 57.2 °F 88% 30.11 in 1.5 mi Calm Calm - N/A   Clear
4:05 AM 60.8 °F - 57.2 °F 88% 30.11 in 0.8 mi Calm Calm - N/A   Clear
4:16 AM 60.8 °F - 59.0 °F 94% 30.12 in 1.0 mi Calm Calm - N/A   Clear
4:28 AM 60.8 °F - 59.0 °F 94% 30.12 in 0.8 mi South 3.5 mph - N/A   Clear
4:44 AM 60.8 °F - 59.0 °F 94% 30.12 in 1.5 mi South 3.5 mph - N/A   Clear
4:47 AM 60.8 °F - 59.0 °F 94% 30.12 in 3.0 mi SSE 3.5 mph - N/A   Clear
4:53 AM 61.0 °F - 59.0 °F 93% 30.12 in 5.0 mi SSE 3.5 mph - N/A   Clear
5:53 AM 61.0 °F - 57.9 °F 90% 30.12 in 7.0 mi SSW 3.5 mph - N/A   Overcast
6:53 AM 62.1 °F - 60.1 °F 93% 30.12 in 9.0 mi South 6.9 mph - N/A   Mostly Cloudy
7:53 AM 64.9 °F - 62.1 °F 90% 30.14 in 10.0 mi South 3.5 mph - N/A   Overcast
8:53 AM 66.9 °F - 63.0 °F 87% 30.15 in 10.0 mi South 8.1 mph - N/A   Overcast
9:53 AM 72.0 °F - 63.0 °F 73% 30.17 in 10.0 mi South 10.4 mph - N/A   Mostly Cloudy
10:53 AM 75.9 °F - 62.1 °F 62% 30.16 in 10.0 mi South 6.9 mph - N/A   Overcast
11:53 AM 80.1 °F 81.1 °F 61.0 °F 52% 30.14 in 10.0 mi South 11.5 mph - N/A   Mostly Cloudy
12:53 PM 81.0 °F 81.7 °F 61.0 °F 50% 30.12 in 10.0 mi SSW 11.5 mph - N/A   Mostly Cloudy
1:53 PM 80.1 °F 81.2 °F 62.1 °F 54% 30.09 in 10.0 mi South 9.2 mph - N/A   Mostly Cloudy
2:53 PM 81.0 °F 81.9 °F 62.1 °F 52% 30.08 in 10.0 mi South 6.9 mph - N/A   Mostly Cloudy
3:53 PM 79.0 °F - 62.1 °F 56% 30.08 in 10.0 mi SE 8.1 mph - N/A   Mostly Cloudy
4:53 PM 77.0 °F - 62.1 °F 60% 30.09 in 10.0 mi SSE 9.2 mph - N/A   Mostly Cloudy
5:53 PM 73.0 °F - 62.1 °F 68% 30.09 in 10.0 mi SSE 13.8 mph - N/A   Mostly Cloudy
6:53 PM 70.0 °F - 63.0 °F 78% 30.10 in 10.0 mi South 12.7 mph - N/A   Mostly Cloudy
7:53 PM 69.1 °F - 62.1 °F 78% 30.11 in 10.0 mi South 10.4 mph - N/A   Mostly Cloudy
8:53 PM 69.1 °F - 61.0 °F 75% 30.12 in 10.0 mi South 10.4 mph - N/A   Mostly Cloudy
9:53 PM 68.0 °F - 61.0 °F 78% 30.13 in 10.0 mi South 10.4 mph - N/A   Partly Cloudy
10:53 PM 66.9 °F - 61.0 °F 81% 30.14 in 10.0 mi South 6.9 mph - N/A   Partly Cloudy
11:53 PM 66.0 °F - 61.0 °F 84% 30.13 in 10.0 mi South 6.9 mph - N/A   Partly Cloudy